Wind_Speed
9 14 15 12 17 16 19 19 10 6 2 7 8 6 11 11 17 12 12 13 21 26 28 31 33 33 32 32 31 29 30 31 30
11 17 21 19 15 17 17 22 20 13 9 18 14 10 9 5 6 9 12 16 11 12 18 21 24 26 28 32 32 31 30 30 30
15 13 20 26 24 23 18 21 25 24 14 23 41 34 34 26 20 21 19 16 15 17 16 18 17 21 30 32 33 32 34 34 31
19 15 14 14 17 18 15 16 22 31 27 24 23 25 29 37 35 35 28 26 30 34 33 34 29 29 33 37 36 35 38 38 38
22 21 17 16 16 13 12 15 19 26 31 29 26 26 28 30 28 34 36 35 34 38 36 40 39 40 37 40 39 37 38 43 44
21 23 21 17 20 19 19 17 19 23 27 30 30 24 24 27 29 27 41 45 49 45 44 48 49 41 38 40 40 39 42 44 46
20 22 26 25 22 19 24 25 26 23 27 32 32 32 31 31 33 32 35 43 50 55 54 49 47 51 52 53 46 42 40 44 46
27 22 26 27 26 25 26 25 26 28 28 28 31 38 35 35 37 38 43 46 54 52 53 48 46 44 45 48 45 42 44 44 48
33 28 28 28 28 27 29 31 30 28 28 30 30 31 37 37 41 44 46 46 50 52 55 53 51 46 43 39 42 44 45 46 45
37 37 34 33 32 31 31 30 30 31 32 33 35 35 38 42 45 48 50 50 51 50 51 48 50 50 45 39 32 41 45 47 50
45 42 43 39 38 35 35 35 34 35 35 34 36 40 40 41 44 46 47 48 47 46 45 46 46 46 47 46 42 41 40 46 50
50 50 48 46 42 39 37 38 39 40 41 40 42 38 39 40 42 44 46 48 49 49 48 49 50 50 50 52 50 47 41 42 45
54 56 55 53 51 44 39 40 40 41 43 40 44 46 45 44 43 43 45 46 46 47 48 50 52 52 51 51 54 54 52 49 47
58 60 61 58 56 53 47 47 45 42 41 45 47 43 46 48 49 48 49 49 49 49 49 51 52 53 54 55 55 55 54 55 54
62 63 62 59 58 58 55 55 52 49 49 50 47 45 47 50 52 50 49 50 51 51 50 51 51 51 55 57 56 57 58 56 56
66 65 65 62 62 62 60 59 59 54 55 51 51 50 50 50 50 52 53 52 53 55 56 55 55 56 55 57 58 59 59 59 57
67 69 68 69 68 68 66 63 61 58 58 54 55 57 55 51 51 51 51 52 53 54 56 57 57 59 60 60 61 62 62 61 60
71 75 73 74 75 71 73 71 70 67 66 60 58 58 55 51 48 50 51 51 52 52 54 55 56 59 61 64 66 69 69 67 64
67 69 81 80 87 86 84 81 80 74 71 68 65 61 57 58 59 59 58 59 60 59 59 61 60 62 63 64 65 68 71 70 67
77 87 89 91 90 90 90 83 79 79 76 75 74 70 64 64 64 65 66 62 61 66 68 65 65 66 67 66 65 64 65 67 67
Wind_Direction
293 286 287 273 267 269 266 281 256 155 211 296 282 228 256 308 282 295 291 270 261 257 259 261 264 268 273 272 271 273 275 266 265
294 275 259 269 269 279 278 275 273 243 208 316 279 231 200 274 242 288 315 283 277 274 263 271 274 271 267 266 270 270 266 263 266
314 296 272 262 257 256 260 258 252 238 237 242 281 266 257 256 254 279 269 273 296 295 288 285 287 293 280 271 263 264 264 258 262
324 315 296 295 262 253 252 243 238 245 246 255 261 261 279 283 264 264 265 268 293 290 286 296 292 291 296 292 272 261 262 261 254
316 316 319 315 301 276 279 267 249 248 251 256 270 259 287 281 271 264 264 271 287 291 289 296 297 295 290 285 270 266 256 259 256
312 311 310 327 326 322 314 299 272 259 262 266 268 274 277 259 272 271 272 276 283 288 287 292 294 295 289 288 272 260 258 256 254
310 309 310 316 315 319 311 308 302 283 271 270 266 269 268 249 250 256 269 272 280 280 286 292 294 288 284 283 282 262 255 256 252
303 307 306 303 306 309 305 293 289 286 282 271 265 260 261 256 256 257 265 271 276 282 286 291 292 288 284 281 275 269 255 254 252
300 300 294 292 297 297 292 293 289 280 284 284 277 266 254 252 255 261 266 271 277 281 285 289 288 287 287 280 272 269 262 253 254
296 297 294 292 289 286 288 290 291 293 294 291 287 284 279 274 270 269 270 270 272 276 277 282 283 285 285 285 281 270 265 262 254
295 291 290 287 285 283 285 287 290 291 291 287 283 283 280 276 273 272 273 274 274 276 276 276 278 280 282 281 277 274 266 261 259
291 290 288 286 283 284 285 287 287 292 293 288 283 271 272 276 276 277 277 277 277 279 280 279 280 279 279 280 281 280 276 268 261
288 288 286 287 289 287 284 280 282 290 285 285 289 286 280 274 270 271 272 272 271 272 274 277 277 278 279 281 281 282 281 279 273
279 280 284 286 285 285 286 286 287 282 282 280 280 287 280 279 277 273 270 268 269 269 270 276 279 280 281 281 281 279 277 276 275
274 275 277 280 282 284 284 284 286 288 289 285 279 280 277 275 276 277 278 279 279 279 277 276 276 277 280 281 281 281 280 277 275
275 278 279 280 280 282 283 285 286 287 287 284 279 278 276 273 271 273 276 277 278 279 280 281 280 280 279 279 280 280 279 279 277
279 280 282 283 283 283 284 285 285 284 287 283 284 282 283 277 273 272 272 274 277 279 280 280 280 281 281 281 280 280 279 280 278
284 283 284 287 288 287 289 292 292 291 292 286 285 281 280 276 276 280 280 277 274 273 274 275 276 277 278 281 283 283 282 280 277
290 284 288 290 288 291 292 292 292 291 290 289 288 285 282 281 281 283 285 284 282 280 278 279 279 278 278 278 279 279 280 279 278
278 279 282 283 283 285 285 287 288 289 288 286 286 286 284 282 281 281 278 280 282 282 283 282 283 283 281 280 278 277 275 275 276
Height
10985 10982 10981 10982 10981 10979 10979 10978 10979 10978 10980 10980 10979 10977 10973 10973 10977 10981 10981 10979 10980 10982 10986 10988 10988 10990 10991 10990 10990 10991 10992 10992 10994
10983 10980 10979 10979 10976 10975 10975 10975 10974 10974 10976 10972 10975 10973 10973 10969 10969 10972 10977 10978 10976 10975 10977 10979 10981 10982 10984 10983 10984 10984 10985 10986 10986
10980 10977 10973 10972 10972 10972 10972 10970 10969 10971 10972 10968 10963 10968 10969 10969 10966 10965 10967 10967 10971 10972 10973 10976 10976 10977 10977 10976 10977 10978 10977 10978 10978
10976 10974 10969 10965 10964 10965 10966 10964 10963 10963 10963 10961 10961 10962 10960 10956 10958 10961 10960 10960 10961 10965 10965 10968 10970 10971 10970 10968 10968 10969 10968 10970 10971
10973 10970 10966 10961 10958 10957 10957 10956 10956 10955 10956 10957 10957 10955 10952 10951 10952 10954 10956 10951 10953 10955 10955 10956 10957 10958 10957 10958 10958 10959 10959 10960 10963
10970 10964 10962 10959 10954 10950 10951 10950 10949 10949 10948 10948 10947 10948 10949 10948 10948 10948 10949 10945 10944 10944 10946 10946 10945 10945 10946 10947 10947 10947 10948 10951 10951
10965 10961 10954 10952 10952 10949 10947 10947 10944 10945 10943 10940 10940 10940 10942 10942 10942 10942 10941 10938 10934 10934 10936 10935 10933 10932 10932 10932 10933 10934 10937 10939 10940
10958 10956 10951 10949 10947 10945 10943 10943 10942 10939 10938 10936 10935 10935 10935 10935 10933 10931 10930 10929 10924 10920 10921 10921 10921 10919 10916 10916 10918 10919 10923 10927 10929
10948 10949 10947 10944 10941 10941 10939 10934 10932 10932 10929 10928 10928 10927 10927 10924 10922 10920 10920 10919 10912 10910 10909 10910 10909 10908 10907 10907 10907 10907 10909 10913 10916
10939 10939 10937 10935 10933 10934 10932 10928 10924 10920 10917 10916 10913 10910 10907 10907 10905 10904 10905 10907 10906 10904 10902 10901 10897 10892 10895 10897 10901 10899 10897 10898 10902
10928 10928 10926 10927 10926 10925 10923 10921 10917 10914 10911 10911 10909 10905 10902 10901 10898 10896 10894 10893 10893 10891 10890 10887 10885 10883 10882 10883 10888 10886 10887 10886 10887
10918 10915 10914 10913 10916 10917 10914 10911 10908 10906 10904 10901 10897 10897 10894 10890 10886 10884 10883 10881 10879 10878 10876 10874 10871 10872 10871 10868 10869 10871 10874 10874 10874
10905 10902 10901 10901 10901 10905 10905 10904 10901 10897 10893 10891 10886 10882 10879 10877 10876 10874 10872 10870 10869 10867 10865 10863 10861 10858 10857 10856 10853 10854 10854 10856 10858
10894 10890 10888 10889 10889 10889 10890 10888 10889 10889 10885 10879 10874 10870 10866 10863 10861 10859 10858 10857 10855 10854 10853 10850 10846 10844 10841 10840 10839 10838 10840 10840 10841
10881 10878 10877 10876 10875 10873 10872 10870 10870 10869 10866 10862 10859 10857 10853 10849 10846 10845 10842 10839 10837 10836 10836 10834 10832 10831 10826 10823 10822 10821 10820 10824 10825
10866 10865 10864 10861 10857 10856 10856 10854 10852 10850 10848 10842 10840 10838 10837 10836 10834 10831 10828 10825 10823 10821 10818 10816 10814 10813 10812 10808 10806 10803 10802 10802 10807
10851 10849 10846 10844 10841 10837 10835 10835 10834 10832 10831 10828 10822 10818 10816 10815 10816 10814 10813 10811 10808 10805 10801 10800 10798 10795 10792 10790 10788 10785 10784 10785 10786
10832 10827 10824 10821 10817 10815 10812 10812 10813 10811 10811 10808 10804 10801 10799 10797 10794 10793 10791 10791 10791 10790 10786 10786 10784 10779 10777 10773 10770 10764 10764 10764 10765
10809 10802 10799 10802 10797 10793 10792 10791 10790 10790 10787 10785 10783 10782 10779 10777 10775 10773 10772 10771 10767 10767 10767 10764 10765 10763 10760 10757 10755 10746 10741 10740 10742
10797 10792 10785 10781 10777 10774 10771 10770 10769 10768 10767 10763 10761 10761 10760 10759 10757 10755 10752 10751 10751 10750 10741 10742 10741 10739 10737 10735 10733 10729 10726 10721 10721